| time (UTC) | temp F | wind direction | speed knots | gust knots | rain 1hr in | rain 24hr in | rain mn in | humidity % | barometer mb |
| 20260507020032 | 51 | 23 | 0.0 | 0.9 | 0.00 | 0.01 | 0.01 | 72 | 1026.9 |
| 20260507014530 | 52 | 23 | 0.0 | 0.0 | 0.00 | 0.01 | 0.01 | 72 | 1026.7 |
| 20260507013026 | 53 | 23 | 0.0 | 0.0 | 0.00 | 0.01 | 0.01 | 69 | 1026.3 |
| 20260507011533 | 54 | 23 | 0.0 | 0.0 | 0.00 | 0.01 | 0.01 | 67 | 1026.2 |
| 20260507010027 | 56 | 23 | 0.0 | 0.9 | 0.00 | 0.01 | 0.01 | 64 | 1026.2 |
| 20260507004535 | 57 | 10 | 0.0 | 0.9 | 0.00 | 0.01 | 0.01 | 60 | 1026.0 |
| 20260507003025 | 58 | 19 | 0.9 | 4.3 | 0.00 | 0.01 | 0.01 | 58 | 1026.0 |
| 20260507001524 | 58 | 11 | 0.9 | 4.3 | 0.00 | 0.01 | 0.01 | 56 | 1025.8 |
| 20260507000024 | 59 | 20 | 0.0 | 4.3 | 0.00 | 0.01 | 0.01 | 57 | 1025.8 |
| 20260506234523 | 59 | 23 | 1.7 | 6.1 | 0.00 | 0.01 | 0.01 | 55 | 1025.7 |
| 20260506233024 | 60 | 23 | 1.7 | 6.1 | 0.00 | 0.01 | 0.01 | 54 | 1025.5 |
| 20260506231522 | 60 | 26 | 1.7 | 7.8 | 0.00 | 0.01 | 0.01 | 53 | 1025.5 |
| 20260506230020 | 60 | 39 | 3.5 | 7.8 | 0.00 | 0.01 | 0.01 | 54 | 1025.2 |
| 20260506224521 | 60 | 26 | 2.6 | 7.8 | 0.00 | 0.01 | 0.01 | 56 | 1024.8 |
| 20260506223018 | 60 | 20 | 4.3 | 7.8 | 0.00 | 0.01 | 0.01 | 56 | 1024.6 |
| 20260506221517 | 60 | 39 | 2.6 | 7.8 | 0.00 | 0.01 | 0.01 | 57 | 1024.6 |
| 20260506220030 | 59 | 20 | 1.7 | 5.2 | 0.00 | 0.01 | 0.01 | 59 | 1024.8 |
| 20260506214516 | 59 | 34 | 2.6 | 7.0 | 0.00 | 0.01 | 0.01 | 59 | 1025.0 |
| 20260506213015 | 59 | 24 | 1.7 | 5.2 | 0.00 | 0.01 | 0.01 | 61 | 1025.0 |
| 20260506211518 | 59 | 6 | 4.3 | 9.6 | 0.00 | 0.01 | 0.01 | 60 | 1025.1 |
| 20260506210016 | 59 | 70 | 0.9 | 5.2 | 0.00 | 0.01 | 0.01 | 63 | 1025.3 |
| 20260506204514 | 59 | 16 | 2.6 | 7.0 | 0.00 | 0.01 | 0.01 | 62 | 1025.5 |
| 20260506203019 | 59 | 4 | 1.7 | 5.2 | 0.00 | 0.01 | 0.01 | 62 | 1025.8 |
| 20260506201512 | 59 | 28 | 1.7 | 10.4 | 0.00 | 0.01 | 0.01 | 62 | 1025.8 |
| 20260506200015 | 58 | 37 | 1.7 | 6.1 | 0.00 | 0.01 | 0.01 | 63 | 1026.0 |
| 20260506194511 | 59 | 39 | 0.9 | 6.1 | 0.00 | 0.01 | 0.01 | 60 | 1026.2 |
| 20260506193009 | 59 | 356 | 3.5 | 9.6 | 0.00 | 0.01 | 0.01 | 59 | 1026.2 |
| 20260506191506 | 59 | 44 | 2.6 | 7.0 | 0.00 | 0.01 | 0.01 | 61 | 1026.1 |
| 20260506190006 | 58 | 39 | 0.9 | 5.2 | 0.00 | 0.01 | 0.01 | 62 | 1026.3 |
| 20260506184502 | 57 | 18 | 1.7 | 6.1 | 0.00 | 0.01 | 0.01 | 65 | 1026.3 |
| 20260506183004 | 57 | 323 | 0.9 | 7.0 | 0.00 | 0.01 | 0.01 | 65 | 1026.6 |
| 20260506181603 | 56 | 9 | 0.9 | 3.5 | 0.00 | 0.01 | 0.01 | 66 | 1027.1 |
| 20260506180116 | 56 | 26 | 0.0 | 2.6 | 0.00 | 0.01 | 0.01 | 68 | 1027.5 |
| 20260506180001 | 56 | 27 | 0.9 | 3.5 | 0.00 | 0.01 | 0.01 | 67 | 1027.5 |
| 20260506174600 | 56 | 29 | 1.7 | 3.5 | 0.00 | 0.01 | 0.01 | 65 | 1027.7 |
| 20260506173131 | 57 | 53 | 0.9 | 4.3 | 0.00 | 0.01 | 0.01 | 65 | 1027.9 |
| 20260506171554 | 55 | 47 | 0.9 | 5.2 | 0.00 | 0.01 | 0.01 | 66 | 1027.9 |
| 20260506170052 | 55 | 63 | 1.7 | 4.3 | 0.00 | 0.01 | 0.01 | 66 | 1027.9 |
| 20260506164549 | 54 | 30 | 1.7 | 8.7 | 0.00 | 0.01 | 0.01 | 67 | 1027.5 |
| 20260506163053 | 54 | 66 | 3.5 | 7.0 | 0.00 | 0.01 | 0.01 | 68 | 1027.4 |
| 20260506161553 | 54 | 31 | 2.6 | 7.0 | 0.00 | 0.01 | 0.01 | 69 | 1026.9 |
| 20260506160040 | 53 | 7 | 3.5 | 7.8 | 0.00 | 0.01 | 0.01 | 71 | 1026.7 |
| 20260506154535 | 51 | 46 | 1.7 | 7.8 | 0.00 | 0.01 | 0.01 | 74 | 1026.7 |
| 20260506153033 | 51 | 2 | 2.6 | 7.8 | 0.00 | 0.01 | 0.01 | 75 | 1026.7 |
| 20260506151530 | 50 | 14 | 1.7 | 7.8 | 0.00 | 0.01 | 0.01 | 78 | 1026.6 |
| 20260506150028 | 49 | 36 | 2.6 | 7.0 | 0.00 | 0.01 | 0.01 | 79 | 1026.6 |
| 20260506144527 | 49 | 51 | 1.7 | 7.0 | 0.00 | 0.01 | 0.01 | 78 | 1026.7 |
| 20260506143027 | 49 | 22 | 4.3 | 11.3 | 0.00 | 0.01 | 0.01 | 78 | 1026.6 |
| 20260506141531 | 48 | 8 | 4.3 | 9.6 | 0.00 | 0.01 | 0.01 | 80 | 1026.4 |
| 20260506140023 | 48 | 31 | 2.6 | 9.6 | 0.00 | 0.01 | 0.01 | 81 | 1026.7 |
| 20260506134520 | 48 | 26 | 3.5 | 7.8 | 0.00 | 0.01 | 0.01 | 82 | 1026.6 |
| 20260506133018 | 47 | 359 | 1.7 | 7.0 | 0.00 | 0.01 | 0.01 | 85 | 1026.5 |
| 20260506131513 | 47 | 42 | 1.7 | 4.3 | 0.00 | 0.01 | 0.01 | 85 | 1026.3 |
| 20260506130016 | 46 | 25 | 0.9 | 11.3 | 0.00 | 0.01 | 0.01 | 86 | 1026.3 |
| 20260506124510 | 46 | 37 | 1.7 | 7.8 | 0.00 | 0.01 | 0.01 | 87 | 1025.9 |
| 20260506123008 | 46 | 32 | 1.7 | 7.0 | 0.00 | 0.01 | 0.01 | 88 | 1026.2 |
| 20260506121506 | 45 | 15 | 1.7 | 6.1 | 0.00 | 0.01 | 0.01 | 88 | 1025.8 |
| 20260506120011 | 45 | 27 | 2.6 | 6.1 | 0.00 | 0.01 | 0.01 | 88 | 1025.6 |
| 20260506114504 | 45 | 51 | 1.7 | 5.2 | 0.00 | 0.01 | 0.01 | 87 | 1025.5 |
| 20260506113003 | 45 | 27 | 1.7 | 6.1 | 0.00 | 0.01 | 0.01 | 88 | 1025.5 |
| 20260506111601 | 45 | 347 | 0.9 | 4.3 | 0.00 | 0.01 | 0.01 | 88 | 1025.3 |
| 20260506110057 | 45 | 30 | 0.9 | 4.3 | 0.00 | 0.01 | 0.01 | 87 | 1024.8 |
| 20260506104559 | 45 | 228 | 0.0 | 2.6 | 0.00 | 0.02 | 0.01 | 87 | 1024.5 |
| 20260506103052 | 46 | 33 | 0.9 | 3.5 | 0.00 | 0.02 | 0.01 | 86 | 1024.1 |
| 20260506101550 | 46 | 27 | 0.9 | 3.5 | 0.00 | 0.02 | 0.01 | 86 | 1023.7 |
| 20260506100046 | 46 | 32 | 1.7 | 4.3 | 0.00 | 0.02 | 0.01 | 86 | 1022.9 |
| 20260506094544 | 45 | 31 | 1.7 | 5.2 | 0.00 | 0.05 | 0.01 | 86 | 1022.8 |
| 20260506093044 | 46 | 1 | 2.6 | 5.2 | 0.00 | 0.05 | 0.01 | 86 | 1022.4 |
| 20260506091543 | 46 | 100 | 0.9 | 5.2 | 0.00 | 0.05 | 0.01 | 87 | 1022.4 |
| 20260506090041 | 46 | 43 | 2.6 | 5.2 | 0.00 | 0.05 | 0.01 | 87 | 1022.4 |
| 20260506084539 | 46 | 31 | 1.7 | 5.2 | 0.00 | 0.43 | 0.01 | 88 | 1022.5 |
| 20260506083038 | 46 | 30 | 0.0 | 4.3 | 0.00 | 0.43 | 0.01 | 88 | 1022.6 |
| 20260506081535 | 46 | 15 | 0.0 | 3.5 | 0.00 | 0.43 | 0.01 | 89 | 1022.1 |
| 20260506073031 | 45 | 13 | 0.0 | 5.2 | 0.01 | 1.12 | 0.01 | 92 | 1021.6 |
| 20260506071530 | 45 | 52 | 3.5 | 8.7 | 0.01 | 1.12 | 0.01 | 92 | 1021.4 |
| 20260506061526 | 45 | 32 | 3.5 | 7.0 | 0.00 | 1.29 | 0.00 | 94 | 1021.7 |
| 20260506044510 | 46 | 37 | 1.7 | 5.2 | 0.00 | 1.32 | 1.32 | 92 | 1021.4 |
| 20260506043005 | 46 | 341 | 3.5 | 9.6 | 0.00 | 1.32 | 1.32 | 92 | 1021.1 |
| 20260506041503 | 46 | 16 | 2.6 | 7.0 | 0.00 | 1.32 | 1.32 | 93 | 1021.3 |
| 20260506040003 | 46 | 11 | 1.7 | 5.2 | 0.00 | 1.32 | 1.32 | 92 | 1021.1 |
| 20260506034604 | 47 | 63 | 3.5 | 9.6 | 0.00 | 1.32 | 1.32 | 90 | 1020.8 |
| 20260506033118 | 47 | 94 | 3.5 | 9.6 | 0.00 | 1.32 | 1.32 | 89 | 1020.6 |
| 20260506031554 | 47 | 354 | 4.3 | 8.7 | 0.00 | 1.32 | 1.32 | 90 | 1020.2 |
| 20260506030059 | 47 | 55 | 1.7 | 5.2 | 0.00 | 1.32 | 1.32 | 92 | 1019.8 |
| 20260506024602 | 47 | 22 | 1.7 | 9.6 | 0.00 | 1.32 | 1.32 | 92 | 1019.4 |
| 20260506023047 | 47 | 25 | 2.6 | 7.0 | 0.00 | 1.32 | 1.32 | 92 | 1019.0 |
| 20260506021555 | 47 | 23 | 2.6 | 7.0 | 0.00 | 1.32 | 1.32 | 91 | 1018.8 |